Terminal Aerodrome Forecast
Issued by NWS Mt. Holly, NJ

Home | Current Version | Previous Version | Text Only | Print | Product List | Glossary On
Versions: 1 2 3 4 5 6 7 8 9 10 11 12 13 14 15 16 17 18 19 20 21 22 23 24 25 26 27 28 29 30 31 32 33 34 35 36 37 38 39 40 41 42 43 44 45 46 47 48 49 50
000
FTUS41 KPHI 240525
TAFABE
TAF
KABE 240525Z 2406/2506 20004KT P6SM OVC009
     FM240800 20004KT 4SM BR OVC005
     FM241300 23005KT 6SM BR BKN010
     FM241500 32009KT P6SM BKN035
     FM242200 34008KT P6SM SCT100=

USA.gov is the U.S. government's official web portal to all federal, state and local government web resources and services.